Regional Weather Roundup
Issued by NWS Spokane, WA

Home | Current Version | Previous Version | Text Only | Print | Product List | Glossary On
Versions: 1 2 3 4 5 6 7 8 9 10 11 12 13 14 15 16 17 18 19 20 21 22 23 24 25 26 27 28 29 30 31 32 33 34 35 36 37 38 39 40 41 42 43 44 45 46 47 48 49 50
000
NZUS01 KOTX 121910
RWROTX
EASTERN WASHINGTON/NORTHERN IDAHO ROUNDUP
NATIONAL WEATHER SERVICE, SPOKANE WA
1200 PM PDT SAT JUL 12 2014

Note: "fair" indicated few or no clouds below 12,000 feet with no
significant weather and/or obstructions to visibility.

...NORTHEAST WASHINGTON AND NORTHERN IDAHO PANHANDLE...

CITY           SKY/WX    TMP DP  RH WIND       PRES   REMARKS
SPOKANE INTL   MOSUNNY   88  42  20 NE7       30.15S
SPOKANE DOWNTO SUNNY     89  49  25 VRB3      30.13F
COEUR D ALENE  SUNNY     86  54  32 NE12      30.13F
DEER PARK      SUNNY     88  49  25 VRB5      30.15F
SANDPOINT      SUNNY     82  46  28 NE5       30.15F

...SOUTHEAST WASHINGTON AND SOUTHERN IDAHO PANHANDLE...

CITY           SKY/WX    TMP DP  RH WIND       PRES   REMARKS
WALLA WALLA    MOSUNNY   92  43  18 VRB3      30.07F
PULLMAN/MOSCOW PTSUNNY   87  52  29 VRB3      30.16F
LEWISTON       MOSUNNY   88  48  25 N5        30.08F
LOWELL           N/A     83  56  39 N3        30.07F

...COLUMBIA BASIN...

CITY           SKY/WX    TMP DP  RH WIND       PRES   REMARKS
EPHRATA        CLOUDY    93  34  12 VRB3      30.07F
MOSES LAKE     PTSUNNY   90  45  21 SW6       30.08S
TRI CITIES     SUNNY     90  49  24 NW7       30.04S
HERMISTON      SUNNY     93  49  22 N6        30.03F HX  90
PENDLETON      SUNNY     93  37  14 VRB6      30.07S

...EAST SLOPES CASCADES...

CITY           SKY/WX    TMP DP  RH WIND       PRES   REMARKS
THE DALLES     SUNNY     91  57  31 NW14      30.00F
YAKIMA         SUNNY     94  44  17 CALM      30.06F HX  90
ELLENSBURG     MOSUNNY   87  54  32 CALM      30.11F
WENATCHEE      CLOUDY    86  45  23 W7        30.09S
OMAK           SUNNY     96  38  13 VRB7      30.08F HX  91

...SOUTHERN BRITISH COLUMBIA...

CITY           SKY/WX    TMP DP  RH WIND       PRES   REMARKS
PENTICTON      SUNNY     84  50  30 N10       30.10F
CASTLEGAR      SUNNY     82  48  30 NW3       30.13F
CRANBROOK      MOSUNNY   82  37  20 VRB2      30.21F

...WESTERN MONTANA...

CITY           SKY/WX    TMP DP  RH WIND       PRES   REMARKS
MISSOULA       SUNNY     86  46  24 CALM      30.19F

...NEIGHBORING CITIES...

CITY           SKY/WX    TMP DP  RH WIND       PRES   REMARKS
SEATTLE        MOSUNNY   78  58  49 S3        30.12S
CALGARY        CLOUDY    81  48  32 NE7       30.24S



USA.gov is the U.S. government's official web portal to all federal, state and local government web resources and services.